Location: Bozhami
(42.0161°N, 44.4336°E)
Time: 09:45:52
(UTC+00:00)

Daily predictions for brighter satellites

Satellite Brightness Start Highest point End
(mag) Time Altitude Azimuth Time Altitude Azimuth Time Altitude Azimuth
Meteor 1-25 Rocket 4.4 16:38:45 10° N 16:44:38 75° E 16:50:27 10° SSE
Cosmos 1354 Rocket 4.4 16:40:50 10° SSW 16:46:03 73° WNW 16:51:19 10° NNE
Cosmos 1933 3.4 16:42:26 10° S 16:46:27 89° WNW 16:50:29 10° N
Helios 1A Rocket 3.4 16:42:57 10° S 16:47:02 65° WSW 16:51:11 10° NNW
USA 267 3.5 16:41:46 10° SE 16:48:17 72° SW 16:54:51 10° NW
Cosmos 2315 Rocket 4.2 16:46:09 10° SSE 16:52:18 54° E 16:58:30 10° NNE
Cosmos 1500 4.2 16:49:46 10° NNE 16:53:01 28° ENE 16:56:16 10° SE
GEOS 3 Rocket 4.5 16:48:13 10° SSE 16:53:25 50° WSW 16:58:39 10° NW
Delta 2 Rocket 4.5 16:49:14 10° WSW 16:54:16 40° S 16:58:51 10° ESE
X-37B 2.3 16:51:57 10° W 16:54:36 24° SSW 16:57:14 10° SSE
SJ-6B 2.9 16:51:55 10° SSE 16:55:50 89° WSW 16:59:53 10° NNW
MOS 1-B Rocket 4.2 16:50:18 10° NNE 16:57:19 79° ESE 17:03:19 10° S
Cosmos 1437 2.5 16:56:56 10° S 16:59:41 52° E 17:02:27 10° NNE
ERS-2 3.1 16:58:49 10° N 17:02:21 51° WNW 17:05:52 10° SSW
Cosmos 1515 Rocket 4.3 17:00:25 10° SSE 17:04:21 33° E 17:08:16 10° NNE
Cosmos 773 Rocket 4.0 17:01:24 10° NNW 17:06:44 86° ENE 17:12:00 10° SSE
Cosmos 2082 Rocket 3.2 17:02:14 10° N 17:07:16 32° NE 17:11:56 11° ESE
MOS 1 4.3 17:03:44 10° SSE 17:09:24 81° ENE 17:15:06 10° NNW
Cosmos 1633 Rocket 3.0 17:05:19 10° N 17:09:45 77° E 17:14:10 10° SSE
Resurs 01 Rocket 2.2 17:06:26 10° SE 17:10:34 41° ENE 17:14:45 10° N
Cosmos 1943 Rocket 3.9 17:12:17 12° ESE 17:14:05 13° E 17:16:37 10° ENE
Cosmos 1328 Rocket 3.5 17:11:00 10° S 17:15:25 81° E 17:19:50 10° N
Tianhe-1 1.5 17:15:29 10° SW 17:18:28 42° SSE 17:21:07 12° E
Cosmos 1538 Rocket 4.2 17:14:18 10° NNW 17:19:35 59° ENE 17:24:06 14° SE
USA 305 2.9 17:16:56 10° NW 17:21:12 79° NE 17:24:31 16° SE
SPOT 3 Rocket 3.7 17:22:17 13° SSE 17:26:48 57° ENE 17:31:51 10° N
Landsat 7 4.2 17:23:05 14° SE 17:26:55 49° ENE 17:31:31 10° N
Cosmos 1470 Rocket 3.6 17:22:34 10° N 17:27:03 67° E 17:31:01 13° SSE
COSMOS 2406 3.2 17:23:18 10° NNW 17:29:00 88° ENE 17:33:57 14° SSE
Cosmos 2278 Rocket 2.4 17:23:59 10° SSW 17:29:38 79° WNW 17:35:20 10° NNE
ATLAS 5 CENTAUR R/B 4.0 17:26:02 10° WNW 17:31:08 30° WSW 17:36:51 10° S
CZ-2C R/B 4.1 17:28:24 10° NNE 17:32:46 44° E 17:36:47 12° S
OBJECT-B 3.1 17:31:22 10° SSW 17:34:00 23° W 17:36:39 10° NW
Cosmos 1271 Rocket 3.0 17:34:30 14° SSE 17:37:42 49° E 17:41:35 10° NNE
Cosmos 1933 Rocket 3.6 17:36:29 10° N 17:40:47 60° E 17:43:38 20° SSE
USA 306 2.9 17:36:37 10° NW 17:40:52 75° SW 17:43:26 23° SE
BREEZE-M DEB (TANK) 3.8 17:34:10 10° WNW 17:41:39 47° SW 17:43:27 22° SSE
NOSS 3-4 (A) 4.0 17:34:45 10° NNW 17:41:50 72° NE 17:47:40 19° SE
NOSS 3-4 (C) 4.0 17:34:52 10° NNW 17:41:56 71° NE 17:47:45 19° SE
SJ 16-02 1.4 17:37:54 10° SSW 17:42:19 80° WNW 17:46:47 10° NNE
ISS -3.6 17:43:42 10° WSW 17:47:03 74° NNW 17:50:26 10° NE
Meteor 2-6 Rocket 4.1 17:41:49 10° S 17:47:15 86° E 17:52:51 10° N
IGS 5A 3.4 17:45:01 18° SSE 17:48:02 88° WSW 17:52:13 10° NNW
Ariane Rocket 4.0 17:45:07 10° S 17:49:56 44° W 17:54:47 10° NNW
CREW DRAGON DEMO-1 DEB 3.4 17:50:02 10° WNW 17:52:27 33° SW 17:52:52 31° SSW
ATLAS 2AS CENTAUR R/B 3.2 17:47:55 10° NNW 17:55:07 53° NE 17:59:38 21° ESE
ARIANE 5 R/B 3.2 17:55:10 27° ESE 17:57:00 41° ENE 18:01:04 10° N
Iridium 4 Rocket 3.8 17:52:59 17° SSE 17:57:32 67° E 18:03:24 10° N
Cosmos 1666 2.5 17:54:10 10° N 17:57:55 89° ENE 17:59:46 28° S
Cosmos 1833 Rocket 3.3 17:55:17 10° NW 18:00:44 51° WSW 18:05:04 16° S
Cosmos 990 Rocket 4.0 17:57:35 13° S 18:02:07 60° ESE 18:07:17 10° NNE
Cosmos 1812 3.8 17:58:38 10° SSW 18:02:19 44° W 18:06:03 10° N
USA 245 2.6 18:04:00 43° NE 18:04:00 43° NE 18:05:55 10° N
Meteor 1-27 Rocket 3.9 18:00:01 20° SSE 18:03:59 57° E 18:09:47 10° NNE
Cosmos 1898 Rocket 3.7 18:01:17 20° S 18:04:41 50° ESE 18:09:50 10° NNE
CZ-4C R/B 3.7 17:58:12 10° NW 18:05:26 50° WSW 18:12:04 16° S
GPS 2-04 Rocket1 4.1 18:04:29 10° WSW 18:07:47 23° SSW 18:08:03 23° S
Cosmos 2154 Rocket 4.2 18:01:53 10° N 18:08:05 56° ENE 18:11:23 28° SE
OAO 3 Rocket 3.7 18:04:20 10° WSW 18:08:32 34° S 18:09:14 32° SSE
USA 307 3.5 18:05:27 10° WNW 18:09:33 46° SW 18:11:06 31° S
SL-24 R/B - RUBIN 2 4.4 18:04:52 10° NNW 18:10:08 50° NE 18:12:18 29° ESE
Nadezhda 1 Rocket 4.0 18:06:25 21° SSE 18:10:40 62° E 18:16:48 10° NNE
Cosmos 158 Rocket 3.9 18:05:54 10° NNW 18:10:49 79° WSW 18:13:24 29° S
Cosmos 923 Rocket 4.0 18:06:47 10° NNW 18:12:04 75° ENE 18:14:35 32° SSE
Cosmos 2074 Rocket 4.0 18:07:09 10° N 18:13:29 89° W 18:17:43 22° S
Cosmos 2184 Rocket 3.9 18:08:22 10° N 18:14:36 90° W 18:18:34 24° S
Cosmos 1818 4.4 18:09:43 10° NNW 18:14:52 39° NE 18:17:30 24° E
Cosmos 44 3.7 18:11:31 10° NNW 18:16:53 59° NE 18:19:06 33° ESE
USA 308 3.9 18:19:25 10° WNW 18:23:22 36° SW 18:24:26 30° SSW
Cosmos 1743 3.4 18:25:15 10° N 18:28:53 37° ENE 18:28:58 37° E
Cosmos 967 Rocket 4.4 18:23:30 10° SSW 18:29:46 86° ESE 18:36:05 10° NNE
Cosmos 2297 3.6 18:29:17 14° SSW 18:34:18 87° ESE 18:40:01 10° NNE
Terra 2.2 18:33:24 40° ESE 18:34:31 49° ENE 18:39:07 10° N
Cosmos 1610 Rocket 4.4 18:31:29 10° N 18:37:39 90° W 18:40:30 34° S
Meteor 1-11 Rocket 4.0 18:32:04 10° NNW 18:37:59 69° W 18:41:00 30° S
H-2A R/B 3.7 18:35:30 10° NNE 18:39:28 49° E 18:39:28 49° E
Cosmos 1461 3.0 18:38:00 30° SSW 18:40:20 79° ESE 18:45:00 10° NE
Cosmos 1862 Rocket 4.4 18:43:35 34° E 18:43:35 34° E 18:47:07 10° NNE
Cosmos 2228 Rocket 4.0 18:41:38 20° SW 18:44:22 47° WNW 18:48:43 10° N
Resurs 01 Rocket 3.9 18:44:06 10° SW 18:47:13 19° W 18:50:21 10° NW
Cosmos 2181 Rocket 4.4 18:46:37 38° ESE 18:47:57 44° E 18:53:41 10° NNE
Cosmos 1340 Rocket 2.6 18:44:46 10° N 18:48:52 88° ENE 18:49:10 77° SSE
Okean 1 3.9 18:49:41 44° ENE 18:49:41 44° ENE 18:52:59 10° NNE
Cosmos 2112 Rocket 4.0 18:45:08 10° NNW 18:50:31 79° WSW 18:52:02 48° S
Cosmos 1869 Rocket 4.0 18:46:29 10° NNW 18:50:43 53° W 18:51:52 40° SW
ERS-1 Rocket 2.9 18:49:27 47° S 18:50:54 80° WSW 18:55:57 10° NNW
Cosmos 2082 Rocket 3.2 18:46:13 10° NW 18:51:22 38° WSW 18:53:47 26° SSW
Tianhe-1 3.1 18:51:46 10° W 18:53:06 23° W 18:53:06 23° W
Cosmos 1943 Rocket 2.2 18:53:41 26° SSW 18:57:01 83° WNW 19:02:40 10° NNE
Spot 2 Rocket 4.2 18:55:08 31° SSW 18:57:05 45° W 19:01:55 10° NNW
Cosmos 1937 Rocket 3.6 18:56:54 31° SSW 18:59:21 73° WNW 19:04:33 10° NNE
Cosmos 1515 3.9 19:04:15 67° N 19:04:15 67° N 19:07:35 10° N
SPOT 5 3.3 19:03:13 44° SSW 19:04:41 61° W 19:09:58 10° NNW
Cosmos 1707 Rocket 3.7 19:04:40 55° SW 19:05:25 67° W 19:09:50 10° N
Cosmos 1656 Rocket 4.3 19:07:29 37° E 19:07:29 37° E 19:12:00 10° NE
Cosmos 1867 3.6 19:07:31 57° ESE 19:07:36 57° ESE 19:12:57 10° NE
Cosmos 2341 Rocket 4.0 19:04:31 10° N 19:10:58 87° E 19:12:48 50° S
Cosmos 1536 4.2 19:08:51 10° NNW 19:12:25 31° W 19:13:01 30° WSW
ERBS 3.6 19:09:59 10° NW 19:12:12 39° NW 19:12:12 39° NW
Cosmos 1680 Rocket 4.4 19:10:56 10° NW 19:15:53 40° WSW 19:17:11 34° SW
Cosmos 2218 Rocket 4.1 19:11:25 10° N 19:17:42 65° E 19:19:04 52° SE
Cosmos 2369 Rocket 2.0 19:17:03 61° S 19:18:02 78° ESE 19:23:42 10° NNE
Cosmos 1238 Rocket 3.3 19:14:06 10° N 19:19:49 88° E 19:20:16 74° SSE
Meteor 1-18 Rocket 4.1 19:23:24 65° SSE 19:24:14 81° E 19:29:49 10° NNE
ISS -1.0 19:21:43 10° WNW 19:24:19 20° NNW 19:26:55 10° NE
Cosmos 2084 Rocket 4.1 19:20:37 10° NW 19:24:21 46° W 19:24:21 46° W
Cosmos 1975 3.5 19:26:34 10° N 19:29:39 49° NNE 19:29:39 49° NNE
SL-8 Rocket 3.9 19:24:28 10° N 19:30:49 85° W 19:32:12 58° S
ALOS 2 4.4 19:32:57 21° ENE 19:32:57 21° ENE 19:36:07 10° NNE
Lacrosse 5 3.9 19:36:00 17° ENE 19:36:00 17° ENE 19:37:18 10° ENE
Cosmos 1733 Rocket 3.5 19:31:20 10° NNW 19:35:19 53° W 19:35:19 53° W
Meteor 2-9 Rocket 4.1 19:30:37 10° NNW 19:36:21 82° W 19:37:00 70° SSW
Cosmos 372 Rocket 4.4 19:40:14 44° WSW 19:41:24 55° WNW 19:46:26 10° NNE
RESURS DK-1 3.2 19:38:29 10° NNW 19:41:51 46° NNE 19:41:51 46° NNE
ATLAS 2AS CENTAUR R/B 3.6 19:39:26 10° NW 19:45:44 34° WSW 19:47:04 32° SW
Cosmos 2298 Rocket 3.9 19:48:59 76° ENE 19:48:59 76° ENE 19:54:03 10° NNE
Cosmos 1908 Rocket 4.0 19:50:59 10° N 19:54:44 61° N 19:54:44 61° N
Cosmos 2263 4.3 19:54:49 60° SW 19:55:49 74° WNW 20:01:38 10° NNE
Cosmos 864 Rocket 4.5 19:49:48 10° NNW 19:55:55 69° W 19:56:47 61° SW
Milstar 3 4.3 19:46:22 10° WSW 19:55:46 31° SSW 19:55:46 31° SSW
Cosmos 494 Rocket 4.2 19:55:30 10° NNW 20:00:29 59° ENE 20:00:29 59° ENE
SL-08 R/B 4.4 19:56:40 10° N 20:02:58 82° E 20:03:39 71° SSE
Gblst 52 Del rocket 4.3 19:58:35 10° WNW 20:05:28 77° SW 20:05:48 75° S
Cosmos 2242 Rocket 4.1 20:06:35 57° N 20:06:35 57° N 20:10:13 10° N
Meteor 2-4 Rocket 3.8 20:08:56 61° WSW 20:09:29 65° WNW 20:15:03 10° N
Terra 3.8 20:12:16 18° W 20:12:32 18° W 20:15:44 10° NW
Cosmos 2150 Rocket 4.2 20:15:51 66° W 20:16:00 66° WNW 20:21:17 10° NNE
Gbstr 26 Del rocket 4.4 20:09:31 10° WNW 20:15:50 47° WSW 20:15:50 47° WSW
Cosmos 44 Rocket 3.8 20:12:24 10° NNW 20:17:31 57° NE 20:17:31 57° NE
Okean 1-7 3.9 20:19:41 46° NNW 20:19:41 46° NNW 20:22:57 10° N
Cosmos 1703 Rocket 4.4 20:23:08 46° NW 20:23:08 46° NW 20:26:40 10° N
Cosmos 1125 Rocket 3.6 20:24:03 70° NW 20:24:03 70° NW 20:29:05 10° NNE
Cosmos 1934 Rocket 4.3 20:18:05 10° N 20:23:59 49° ENE 20:24:25 48° E
Cosmos 1833 4.2 20:18:54 10° NNW 20:24:30 73° W 20:24:30 73° W
Cosmos 1782 Rocket 4.4 20:23:34 10° N 20:26:53 49° NNW 20:26:53 49° NNW
Cosmos 1821 Rocket 3.9 20:26:05 10° N 20:32:29 79° W 20:32:57 74° SW
ATLAS CENTAUR R/B 3.2 20:34:09 25° NW 20:34:09 25° NW 20:36:55 10° N
Meteor 1-23 Rocket 4.4 20:38:48 63° E 20:38:48 63° E 20:44:21 10° NNE
Meteor 1-13 Rocket 4.2 20:39:56 71° WNW 20:39:56 71° WNW 20:45:22 10° N
Cosmos 2344 4.4 20:30:39 10° NW 20:40:15 84° NE 20:46:40 36° SE
Cosmos 1535 Rocket 4.3 20:53:42 10° N 21:00:02 86° E 21:00:24 80° SSE
Cosmos 2221 Rocket 4.4 21:02:33 51° N 21:02:33 51° N 21:05:59 10° N
ISS -0.7 20:59:47 10° NW 21:02:02 16° N 21:04:18 10° NE
Cosmos 2369 Rocket 4.5 20:58:57 10° W 21:02:44 18° NW 21:06:34 10° N
ALOS 2 4.2 21:10:20 28° WNW 21:10:20 28° WNW 21:12:57 10° NNW
Cosmos 1400 Rocket 4.4 21:08:02 10° N 21:10:40 34° NNE 21:10:40 34° NNE
NOSS 2-1 (E) 4.3 21:07:58 10° NW 21:13:20 81° SW 21:13:25 81° SW
SeaSat 1 3.2 21:08:41 10° NE 21:12:25 42° ENE 21:12:25 42° ENE
Lacrosse 5 2.6 21:15:08 46° NW 21:15:38 48° NW 21:20:34 10° NE
USA 81 4.1 21:11:46 10° N 21:16:41 73° NE 21:16:41 73° NE
USA 215 4.1 21:15:24 10° E 21:21:34 46° NNE 21:27:45 10° NW
Meteor 1-22 Rocket 4.3 21:16:21 10° N 21:22:28 83° E 21:22:46 80° SE
Cosmos 1269 Rocket 4.4 21:18:22 10° NNW 21:22:46 55° WNW 21:22:46 55° WNW
Cosmos 1697 Rocket 4.2 21:26:13 24° E 21:26:13 24° E 21:30:22 10° NE
Helios 1A 4.4 21:30:19 32° ENE 21:30:19 32° ENE 21:33:38 10° N
Thor Agena Rocket 4.2 21:29:57 10° N 21:35:00 47° WNW 21:35:05 47° WNW
COSMOS 2455 2.8 21:31:54 10° NNW 21:37:57 77° ENE 21:38:40 67° ESE
Cosmos 1605 Rocket 3.9 21:32:24 10° NNW 21:38:40 69° W 21:39:01 68° WSW
Cosmos 1980 Rocket 4.1 21:39:29 16° ESE 21:39:59 16° E 21:43:23 10° ENE
Okean 2 4.4 21:44:57 45° N 21:44:57 45° N 21:47:54 10° N
EO 1 Delta rocket 4.4 21:44:12 63° W 21:44:12 63° W 21:50:18 10° NNW
Cosmos 1153 Rocket 4.4 21:40:19 10° N 21:46:46 87° E 21:47:34 71° SSE
Cosmos 2173 Rocket 4.5 21:41:15 10° N 21:47:18 52° ENE 21:48:51 43° ESE
Cosmos 1726 3.9 21:44:12 10° N 21:46:16 31° N 21:46:16 31° N
Cosmos 2227 Rocket 2.7 21:48:53 10° NNW 21:54:26 54° ENE 21:55:58 42° ESE
Cosmos 2297 Rocket 2.2 21:50:59 10° NNW 21:56:40 74° ENE 21:57:23 65° ESE
Meteor 2-20 Rocket 4.3 21:57:42 73° S 21:58:22 89° WNW 22:04:34 10° N
Cosmos 1656 3.5 21:59:06 88° WSW 21:59:09 88° WNW 22:04:43 10° NNE
Cosmos 1674 4.3 22:02:00 30° ENE 22:02:00 30° ENE 22:04:35 10° NNE
Timation 2 Rocket 4.0 21:57:24 10° NNW 22:03:22 71° ENE 22:04:59 49° SE
Cosmos 2369 4.4 22:06:13 39° ESE 22:06:44 40° ESE 22:12:03 10° NE
Cosmos 1626 4.3 22:08:14 20° ENE 22:08:14 20° ENE 22:10:32 10° NE
Cosmos 1953 3.3 22:11:22 10° N 22:14:51 43° ENE 22:14:51 43° ENE
Cosmos 1975 Rocket 3.3 22:17:07 65° NE 22:17:07 65° NE 22:20:55 10° N
Cosmos 371 Rocket 3.3 22:17:33 72° NW 22:17:33 72° NW 22:22:18 10° NNE
ADEOS II 3.8 22:15:42 10° NE 22:19:51 23° E 22:21:34 20° ESE
Cosmos 2100 Rocket 3.9 22:14:42 10° N 22:21:03 82° W 22:22:16 60° S
Cosmos 332 Rocket 3.7 22:23:32 80° ESE 22:23:32 80° ESE 22:28:24 10° NNE
Helios 1B rocket 3.3 22:19:45 10° NNE 22:23:25 42° E 22:23:25 42° E
Cosmos 2123 Rocket 4.2 22:22:45 48° SSE 22:24:20 64° E 22:30:29 10° NNE
Cosmos 1802 Rocket 3.9 22:20:36 10° N 22:26:46 83° E 22:28:20 53° SSE
Cosmos 1025 Rocket 3.4 22:30:26 54° E 22:30:27 54° E 22:34:44 10° NNE
CZ-4 R/B 4.3 22:30:32 10° N 22:35:08 47° WNW 22:35:13 47° WNW
BREEZE-M DEB (TANK) 2.8 22:35:06 68° SW 22:35:44 83° SE 22:46:49 10° ENE
Lacrosse 4 Rocket 1.5 22:37:55 83° NE 22:37:55 83° NE 22:42:12 10° NNE
Resurs 1-4 Rocket 2.0 22:34:08 10° NNE 22:39:25 78° ESE 22:40:19 61° S
ISS -2.2 22:36:24 10° NW 22:39:34 36° NNE 22:42:43 10° E
KORONAS-FOTON 4.3 22:42:23 58° NNW 22:42:23 58° NNW 22:45:40 10° N
CZ-2D R/B 2.1 22:36:56 10° NNE 22:42:20 80° ESE 22:43:21 59° S
Cosmos 2263 Rocket 4.2 22:39:47 10° N 22:44:31 27° NE 22:49:15 10° ESE
Cosmos 2219 3.3 22:39:58 10° NNW 22:45:31 52° WSW 22:45:42 52° WSW
APEX 3.9 22:41:51 10° NNW 22:46:39 86° ENE 22:48:44 40° SSE
Cosmos 2056 Rocket 3.7 22:46:13 51° SSE 22:47:08 60° ESE 22:52:10 10° NNE
AQUA 4.1 22:43:21 10° NNE 22:48:04 58° E 22:48:57 49° SE
NPP 3.7 22:42:54 10° NNE 22:48:19 74° ESE 22:49:38 51° S
MOZ.5/SAFIR/RUBIN 5/SL-8 4.1 22:49:45 48° W 22:49:45 48° W 22:53:53 10° NNW
Cosmos 614 Rocket 4.2 22:45:42 10° NNW 22:50:29 51° W 22:50:29 51° W
SeaSat 1 4.0 22:46:46 10° N 22:50:43 25° NW 22:52:12 21° WNW
SL-19 R/B 4.2 22:50:20 10° NNE 22:55:50 73° ESE 22:57:20 47° S
SL-08 R/B 4.5 22:51:53 10° N 22:58:17 80° W 23:00:47 40° S
Cosmos 1315 Rocket 4.4 22:54:53 10° NNW 22:57:09 24° WNW 22:57:09 24° WNW
USA 281 3.1 22:55:42 37° S 22:58:28 70° WSW 23:05:02 10° NNW
Cosmos 1140 Rocket 3.4 22:53:28 10° NNW 22:58:43 85° ENE 23:00:47 38° SSE
Cosmos 1340 4.0 22:58:55 29° ESE 22:59:35 31° E 23:02:56 10° NNE
Lacrosse 5 4.3 22:56:15 10° WNW 22:59:42 18° NNW 23:03:10 10° NNE
Cosmos 1371 Rocket 3.9 22:59:07 57° SSW 23:00:15 90° E 23:05:28 10° NNE
BREEZE-M DEB (TANK) 2.9 23:01:52 41° ESE 23:01:52 41° ESE 23:03:46 10° ENE
USA 215 3.2 22:58:00 10° SE 23:04:26 61° SW 23:10:55 10° NW
Meteor 1-24 Rocket 4.5 23:02:52 25° SSE 23:05:40 45° E 23:10:46 10° NNE
SL-16 R/B 2.5 23:03:40 39° S 23:06:04 69° WSW 23:12:19 10° NNW
UNK 3.6 23:06:17 61° SW 23:06:49 67° WSW 23:11:23 10° NNW
CENTAUR R/B 4.3 23:05:48 11° SE 23:09:17 19° ESE 23:13:32 10° ENE
Cosmos 1697 Rocket 3.2 23:07:56 37° WSW 23:09:34 48° WNW 23:14:59 10° NNE
Cosmos 1544 Rocket 3.6 23:06:54 10° NNW 23:11:15 58° W 23:11:33 57° WSW
Cosmos 1908 4.0 23:08:51 10° NNW 23:11:55 38° WNW 23:11:55 38° WNW
Meteor 1-28 Rocket 4.5 23:10:56 21° SE 23:12:54 38° ENE 23:16:21 10° N
MINOTAUR 4 R/B 4.0 23:13:20 76° WNW 23:13:20 76° WNW 23:16:46 10° NNW
Cosmos 1725 Rocket 4.1 23:08:45 10° NNW 23:14:51 59° W 23:17:04 38° SSW
IRS-1D 3.9 23:11:15 10° NNE 23:16:34 62° E 23:19:05 31° S
Cosmos 2233 Rocket 3.9 23:14:16 10° N 23:20:29 82° W 23:23:55 28° S
Cosmos 1455 Rocket 4.3 23:17:05 10° NNW 23:20:20 27° W 23:20:20 27° W
Cosmos 1980 Rocket 2.2 23:21:15 40° SW 23:23:19 70° WNW 23:29:00 10° NNE
Landsat 4 3.8 23:25:05 10° N 23:28:48 58° WNW 23:29:16 53° WSW
Cosmos 1536 Rocket 3.7 23:29:09 46° SW 23:30:09 59° W 23:34:33 10° N
Cosmos 1190 Rocket 4.1 23:28:58 10° NNW 23:34:05 55° WSW 23:36:16 32° SSW
IDEFIX/ARIANE 42P 3.0 23:30:55 10° NNE 23:36:08 58° E 23:39:38 21° S
Meteor 2-5 Rocket 3.7 23:33:30 32° SSW 23:36:15 78° W 23:41:52 10° N
Cosmos 2227 Rocket 3.5 23:33:52 10° NW 23:37:44 21° W 23:37:44 21° W
ARIANE 5 R/B 3.8 23:33:26 10° NNE 23:38:06 34° E 23:42:36 10° SSE
Cosmos 1420 Rocket 4.0 23:37:36 35° SW 23:39:48 73° WNW 23:45:00 10° NNE
Cosmos 2297 Rocket 4.0 23:36:49 10° WNW 23:39:08 15° W 23:39:08 15° W
Cosmos 1626 3.6 23:42:44 23° WNW 23:42:49 23° WNW 23:45:47 10° NNW
Atlas Centaur 2 3.9 23:42:54 23° SSW 23:45:28 27° SSE 23:51:17 10° ESE
Cosmos 220 Rocket 4.0 23:46:47 34° SSW 23:48:38 79° WNW 23:53:04 10° NNE
GP-B 3.4 23:44:45 10° N 23:49:03 49° W 23:50:40 33° SW
OAO 2 Rocket 3.9 23:47:52 31° SW 23:49:28 39° S 23:54:22 10° ESE
Cosmos 2278 4.2 23:48:13 27° WSW 23:51:02 49° WNW 23:56:35 10° NNE
Cosmos 1953 4.5 23:49:17 10° WNW 23:50:30 13° WNW 23:50:30 13° WNW
Cosmos 407 Rocket 4.5 23:48:54 10° NW 23:53:24 28° W 23:54:29 26° WSW
Cosmos 2285 Rocket 4.5 23:50:07 25° SW 23:53:34 49° WNW 23:59:49 10° N
Aureole 2 Rocket 1.7 23:51:09 10° NNW 23:53:38 60° W 23:53:38 60° W
